Weather reports worldwide

Advertisment
Manston, United Kingdom (3797): temperature & dewpoint: 13.06.2018 00:00:00 - 19.06.2018 00:00:00 (BST)Manston, United Kingdom (3797): temperature -20cm & temperature -100cm: 13.06.2018 00:00:00 - 19.06.2018 00:00:00 (BST)Manston, United Kingdom (3797): wind speed & gusts: 13.06.2018 00:00:00 - 19.06.2018 00:00:00 (BST)Manston, United Kingdom (3797): wind direction: 13.06.2018 00:00:00 - 19.06.2018 00:00:00 (BST)Manston, United Kingdom (3797): reduced air pressure: 13.06.2018 00:00:00 - 19.06.2018 00:00:00 (BST)Manston, United Kingdom (3797): visibility: 13.06.2018 00:00:00 - 19.06.2018 00:00:00 (BST)Manston, United Kingdom (3797): sunshine duration: 13.06.2018 00:00:00 - 19.06.2018 00:00:00 (BST)Manston, United Kingdom (3797): precipitation: 13.06.2018 00:00:00 - 19.06.2018 00:00:00 (BST)
Date & Time tt [°C] td [°C] tt -20cm [°C] tt -100cm [°C] ff [km/h] ff [kn] fx [km/h] fx [kn] dd ppp [hPa] vv [km] sd [min] rr [mm]
19.06.2018 00:00:00 - - - - - - - - - - - - 0,0
18.06.2018 23:00:00 16,0 13,7 - - 16 9 - - SSW 1021,0 23 0 0,0
18.06.2018 22:00:00 17,1 13,7 - - 18 10 - - SW 1020,6 24 0 0,0
18.06.2018 21:00:00 18,2 13,3 - - 21 11 - - SW 1020,0 23 30 0,0
18.06.2018 20:00:00 19,4 13,1 - - 29 16 48 26 SW 1019,5 17 60 0,0
18.06.2018 19:00:00 20,3 13,5 - - 31 17 46 25 SW 1019,2 28 60 0,0
18.06.2018 18:00:00 20,6 13,9 - - 29 16 46 25 SSW 1018,9 24 60 0,0
18.06.2018 17:00:00 21,4 14,9 - - 29 16 - - SSW 1019,0 19 60 0,0
18.06.2018 16:00:00 21,6 14,1 - - 24 13 - - SSW 1018,9 30 60 0,0
18.06.2018 15:00:00 22,1 12,9 - - 22 12 - - SW 1019,2 45 60 0,0
18.06.2018 14:00:00 22,6 14,3 - - 22 12 - - WSW 1019,6 24 54 0,0
18.06.2018 13:00:00 20,2 13,1 - - 24 13 - - WSW 1019,6 45 18 0,0
18.06.2018 12:00:00 18,2 13,0 - - 24 13 - - WSW 1019,7 50 0 0,0
18.06.2018 11:00:00 17,5 13,7 - - 24 13 - - WSW 1019,2 45 0 0,0
18.06.2018 10:00:00 16,9 14,0 17,4 13,2 22 12 - - SW 1019,0 30 0 0,0
18.06.2018 09:00:00 15,7 13,9 - - 24 13 - - SW 1019,0 19 0 0,0
18.06.2018 08:00:00 16,3 14,3 - - 21 11 - - SW 1018,2 26 0 0,0
18.06.2018 07:00:00 15,6 14,7 - - 16 9 - - SW 1017,8 10 0 0,0
18.06.2018 06:00:00 15,0 14,6 - - 16 9 - - SW 1017,7 7 0 0,0
18.06.2018 05:00:00 14,8 14,1 - - 18 10 - - SW 1017,5 12 0 0,0
18.06.2018 04:00:00 15,1 14,1 - - 21 11 - - SW 1017,2 30 0 0,0
18.06.2018 03:00:00 15,0 14,3 - - 16 9 - - SSW 1017,2 15 0 0,0
18.06.2018 02:00:00 14,7 14,0 - - 18 10 - - SSW 1017,5 11 0 0,0
18.06.2018 01:00:00 14,7 13,7 - - 18 10 - - SSW 1017,8 27 - 0,0
18.06.2018 00:00:00 14,5 13,4 - - 21 11 - - SW 1018,3 19 0 0,0
17.06.2018 23:00:00 14,3 12,9 - - 26 14 - - SSW 1018,0 24 0 0,0
17.06.2018 22:00:00 14,1 12,5 - - 22 12 - - SSW 1018,2 20 0 0,0
17.06.2018 21:00:00 14,3 12,1 - - 22 12 - - SSW 1017,9 28 0 0,0
17.06.2018 20:00:00 15,3 11,8 - - 31 17 - - SW 1017,9 50 0 0,0
17.06.2018 19:00:00 16,2 11,3 - - 29 16 48 26 SW 1017,5 30 6 0,0
17.06.2018 18:00:00 17,4 10,7 - - 28 15 - - SW 1017,3 29 0 0,0
17.06.2018 17:00:00 17,7 11,4 - - 26 14 - - SW 1017,5 30 0 0,0
17.06.2018 16:00:00 17,1 10,7 - - 29 16 - - SW 1017,5 30 0 0,0
17.06.2018 15:00:00 17,8 10,4 - - 29 16 - - SW 1017,3 29 0 0,0
17.06.2018 14:00:00 18,4 12,4 - - 22 12 - - SW 1017,0 27 6 0,0
17.06.2018 13:00:00 18,6 10,6 - - 22 12 - - SW 1017,0 20 0 0,0
17.06.2018 12:00:00 18,0 10,3 - - 22 12 - - WSW 1017,1 20 36 0,0
17.06.2018 11:00:00 16,5 11,7 - - 21 11 - - SW 1017,2 16 6 0,0
17.06.2018 10:00:00 15,2 11,7 17,7 13,2 21 11 - - WSW 1017,1 20 0 0,0
17.06.2018 09:00:00 14,1 10,4 - - 18 10 - - WSW 1017,1 21 0 0,0
17.06.2018 08:00:00 14,4 10,3 - - 21 11 - - WSW 1016,7 40 0 0,0
17.06.2018 07:00:00 13,7 10,0 - - 16 9 - - WSW 1016,1 30 0 0,0
17.06.2018 06:00:00 13,0 10,0 - - 15 8 - - SW 1015,6 35 - 0,0
17.06.2018 05:00:00 12,6 10,3 - - 11 6 - - SW 1015,5 27 0 0,0
17.06.2018 04:00:00 12,2 10,5 - - 13 7 - - SW 1015,5 19 0 0,0
17.06.2018 03:00:00 12,1 10,7 - - 9 5 - - SSW 1015,6 14 0 0,0
17.06.2018 02:00:00 12,6 11,3 - - 13 7 - - SW 1015,1 13 0 0,0
17.06.2018 01:00:00 13,4 11,8 - - 15 8 - - SW 1015,0 11 - 0,0
17.06.2018 00:00:00 13,7 11,9 - - 18 10 - - SW 1014,8 12 0 0,0
16.06.2018 23:00:00 13,8 11,7 - - 24 13 - - SW 1014,5 14 0 0,0
16.06.2018 22:00:00 14,1 11,6 - - 21 11 - - SSW 1014,4 24 0 0,0
16.06.2018 21:00:00 14,5 11,8 - - 22 12 - - SW 1014,1 23 6 0,0
16.06.2018 20:00:00 15,7 11,4 - - 28 15 - - SW 1014,3 27 18 0,0
16.06.2018 19:00:00 17,3 12,2 - - 29 16 - - SW 1014,3 50 12 0,0
16.06.2018 18:00:00 18,0 11,0 - - 29 16 46 25 SW 1014,2 45 18 0,0
16.06.2018 17:00:00 18,5 11,1 - - 26 14 - - SW 1014,3 25 6 0,0
16.06.2018 16:00:00 19,0 10,1 - - 28 15 - - SW 1014,4 35 24 0,0
16.06.2018 15:00:00 18,7 9,6 - - 31 17 - - SW 1014,4 30 24 0,0
16.06.2018 14:00:00 18,8 10,1 - - 26 14 - - SW 1014,1 35 30 0,0
16.06.2018 13:00:00 19,8 9,8 - - 28 15 - - SSW 1014,2 45 48 0,0
16.06.2018 12:00:00 18,7 9,5 - - 22 12 - - SW 1014,7 24 54 0,0
16.06.2018 11:00:00 17,5 11,9 - - 21 11 - - SW 1015,0 27 6 0,0
16.06.2018 10:00:00 16,6 11,2 18,2 13,0 21 11 - - SW 1015,1 24 0 0,0
16.06.2018 09:00:00 15,9 10,5 - - 11 6 - - SW 1015,2 35 0 0,0
16.06.2018 08:00:00 14,6 11,1 - - 9 5 - - SW 1015,2 30 0 0,0
16.06.2018 07:00:00 13,5 11,0 - - 13 7 - - WSW 1015,1 29 0 0,0
16.06.2018 06:00:00 13,4 11,1 - - 8 4 - - W 1014,7 22 0 0,0
16.06.2018 05:00:00 12,7 10,9 - - 9 5 - - W 1015,0 22 0 0,0
16.06.2018 04:00:00 12,8 10,8 - - 9 5 - - W 1015,0 24 0 0,0
16.06.2018 03:00:00 12,7 11,1 - - 9 5 - - W 1015,4 19 0 0,0
16.06.2018 02:00:00 13,7 11,6 - - 15 8 - - WSW 1015,6 20 0 0,0
16.06.2018 01:00:00 14,0 11,3 - - 11 6 - - WSW 1015,5 22 - 0,0
16.06.2018 00:00:00 14,2 10,9 - - 11 6 - - SW 1015,6 26 0 0,0
15.06.2018 23:00:00 15,1 10,7 - - 15 8 - - SW 1015,7 30 0 0,0
15.06.2018 22:00:00 15,8 11,6 - - 13 7 - - SW 1015,8 29 0 0,0
15.06.2018 21:00:00 16,9 12,6 - - 11 6 - - SSW 1015,4 23 0 0,0
15.06.2018 20:00:00 17,7 12,3 - - 11 6 - - S 1015,6 15 0 0,0
15.06.2018 19:00:00 19,1 10,9 - - 15 8 - - SSW 1015,6 35 24 0,0
15.06.2018 18:00:00 20,4 10,1 - - 15 8 - - SSW 1015,8 40 60 0,0
15.06.2018 17:00:00 20,3 10,3 - - 18 10 - - S 1016,0 21 60 0,0
15.06.2018 16:00:00 21,2 9,6 - - 18 10 - - S 1016,4 23 60 0,0
15.06.2018 15:00:00 20,1 10,1 - - 16 9 - - ESE 1016,6 21 60 0,0
15.06.2018 14:00:00 19,2 11,7 - - 16 9 - - ESE 1016,6 19 60 0,0
15.06.2018 13:00:00 19,6 10,8 - - 9 5 - - N 1017,0 19 54 0,0
15.06.2018 12:00:00 19,0 10,6 - - 11 6 - - N 1016,9 30 60 0,0
15.06.2018 11:00:00 18,1 11,3 - - 13 7 - - N 1016,7 26 60 0,0
15.06.2018 10:00:00 17,3 12,4 17,0 13,0 16 9 - - NNW 1016,8 28 60 0,0
15.06.2018 09:00:00 17,5 13,1 - - 11 6 - - NW 1016,7 20 54 0,0
15.06.2018 08:00:00 16,2 13,0 - - 11 6 - - NW 1016,4 30 42 0,0
15.06.2018 07:00:00 15,5 13,0 - - 8 4 - - WNW 1016,1 21 42 0,0
15.06.2018 06:00:00 13,1 11,6 - - 9 5 - - WNW 1015,9 28 0 0,0
15.06.2018 05:00:00 13,0 10,8 - - 9 5 - - WNW 1015,6 24 0 0,0
15.06.2018 04:00:00 13,4 11,1 - - 11 6 - - WNW 1015,6 28 0 0,0
15.06.2018 03:00:00 13,4 11,8 - - 9 5 - - NW 1015,6 19 0 0,0
15.06.2018 02:00:00 14,7 11,9 - - 9 5 - - WNW 1015,5 26 0 0,0
15.06.2018 01:00:00 15,5 13,0 - - 5 3 - - NW 1015,6 18 - 0,0
15.06.2018 00:00:00 15,4 12,8 - - 5 3 - - NW 1015,4 16 0 0,0
14.06.2018 23:00:00 16,1 13,8 - - 8 4 - - WNW 1015,6 11 0 0,0
14.06.2018 22:00:00 16,7 14,3 - - 11 6 - - WSW 1015,2 12 0 0,0
14.06.2018 21:00:00 17,3 14,6 - - 11 6 - - SSW 1014,1 14 0 0,0
14.06.2018 20:00:00 18,6 15,0 - - 13 7 - - SSW 1013,6 12 54 0,0
14.06.2018 19:00:00 19,5 14,8 - - 16 9 - - SSW 1012,8 21 60 0,0
14.06.2018 18:00:00 20,4 15,8 - - 18 10 - - SSW 1012,5 23 36 0,0
14.06.2018 17:00:00 20,7 15,1 - - 18 10 - - SW 1012,2 50 30 0,0
14.06.2018 16:00:00 19,9 15,1 - - 21 11 - - SSW 1011,9 26 30 0,0
14.06.2018 15:00:00 17,9 14,5 - - 28 15 - - SSW 1011,9 23 0 0,0
14.06.2018 14:00:00 15,8 13,7 - - 26 14 46 25 SW 1012,0 35 0 0,0
14.06.2018 13:00:00 16,6 13,4 - - 35 19 54 29 SSW 1011,4 30 0 0,0
14.06.2018 12:00:00 15,1 12,7 - - 31 17 54 29 SW 1011,9 30 0 0,0
14.06.2018 11:00:00 15,8 12,6 - - 37 20 55 30 SSW 1011,3 19 0 0,0
14.06.2018 10:00:00 15,5 12,1 17,7 13,0 41 22 57 31 SSW 1011,3 35 0 0,0
14.06.2018 09:00:00 14,4 12,0 - - 34 18 - - SSW 1011,6 30 0 0,0
14.06.2018 08:00:00 13,9 12,0 - - 29 16 - - SSW 1011,8 10 0 0,0
14.06.2018 07:00:00 14,4 11,4 - - 26 14 - - SSW 1012,1 35 0 0,0
14.06.2018 06:00:00 14,1 11,5 - - 22 12 - - S 1012,2 26 0 0,0
14.06.2018 05:00:00 13,1 10,7 - - 15 8 - - S 1013,0 22 0 0,0
14.06.2018 04:00:00 12,8 9,8 - - 18 10 - - SSW 1013,8 30 - 0,0
14.06.2018 03:00:00 12,6 9,4 - - 15 8 - - S 1014,3 50 0 0,0
14.06.2018 02:00:00 11,8 8,4 - - 13 7 - - S 1015,2 50 0 0,0
14.06.2018 01:00:00 12,6 8,0 - - 15 8 - - S 1015,7 50 - 0,0
14.06.2018 00:00:00 13,4 7,9 - - 13 7 - - S 1016,2 50 0 0,0
13.06.2018 23:00:00 13,3 7,9 - - 11 6 - - SSW 1016,6 50 0 0,0
13.06.2018 22:00:00 13,6 7,7 - - 11 6 - - SSW 1017,0 40 0 0,0
13.06.2018 21:00:00 14,1 7,4 - - 9 5 - - SSW 1017,0 50 0 0,0
13.06.2018 20:00:00 16,1 7,9 - - 18 10 - - SSW 1017,1 50 30 0,0
13.06.2018 19:00:00 17,2 8,3 - - 21 11 - - SSW 1017,2 40 60 0,0
13.06.2018 18:00:00 18,2 9,5 - - 24 13 - - SSW 1017,4 40 60 0,0
13.06.2018 17:00:00 18,6 10,1 - - 22 12 - - S 1017,7 28 60 0,0
13.06.2018 16:00:00 18,3 10,2 - - 21 11 - - S 1017,9 40 54 0,0
13.06.2018 15:00:00 16,6 10,9 - - 22 12 - - SE 1018,5 40 54 0,0
13.06.2018 14:00:00 17,2 11,1 - - 18 10 - - SE 1019,0 22 60 0,0
13.06.2018 13:00:00 16,9 10,5 - - 15 8 - - SSE 1019,6 30 54 0,0
13.06.2018 12:00:00 17,5 10,4 - - 9 5 - - N 1019,5 25 54 0,0
13.06.2018 11:00:00 16,8 9,9 - - 11 6 - - NW 1019,5 50 60 0,0
13.06.2018 10:00:00 15,9 8,2 16,4 13,0 5 3 - - NW 1019,5 29 54 0,0
13.06.2018 09:00:00 14,7 9,4 - - 11 6 - - NW 1019,9 40 54 0,0
13.06.2018 08:00:00 14,3 10,4 - - 8 4 - - NNW 1019,4 27 60 0,0
13.06.2018 07:00:00 13,3 10,9 - - 9 5 - - N 1019,4 29 54 0,0
13.06.2018 06:00:00 11,1 10,2 - - 9 5 - - N 1019,4 26 6 0,0
13.06.2018 05:00:00 10,3 9,2 - - 11 6 - - N 1019,4 30 0 0,0
13.06.2018 04:00:00 10,7 9,5 - - 13 7 - - N 1019,2 26 0 0,0
13.06.2018 03:00:00 11,2 9,8 - - 13 7 - - N 1019,2 22 0 0,0
13.06.2018 02:00:00 12,3 10,0 - - 15 8 - - N 1019,3 45 0 0,0
13.06.2018 01:00:00 12,5 9,9 - - 15 8 - - N 1019,3 45 - 0,0
13.06.2018 00:00:00 12,5 9,6 - - 16 9 - - N 1019,2 45 0 0,0

tt = temperature
td = dewpoint
tt -20cm = temperature -20cm
tt -100cm = temperature -100cm
ff = wind speed
fx = gusts
dd = wind direction
ppp = reduced air pressure
vv = visibility
sd = sunshine duration
rr = precipitation

Next stations